SPACEMOBILE-SSR04 DEB, 62372

Orbit data source: Space-Track

SPACEMOBILE-SSR04 DEB, 62372 is space debris in LEO originally from a launch on Thu, 12 Sep 2024 UTC launched from the Air Force Eastern Test Range (AFETR). Debris objects in space refer to the collection of defunct objects orbiting the Earth. Examples of debris include non-operational satellites, rocket bodies, and fragments generated from explosions, collisions, or faulty payload assembly.

Loading next visibility...
Identifier
62372, 2024-163J
Orbit
LEO
Country
Flag of USUS
Related business
Manufacturer
AST & Science
Mission
Spacecraft
Bus & Motor
BW3 LVA, Unknown motor
Mass
150 kg wet, 150 kg dry
Launch date (UTC)
2024-09-12 (1 year ago)
Launch vehicle
Unknown
Launch site
Air Force Eastern Test Range (AFETR)
Object type
Payload
Rocket body
Debris
Shape & HBR
Cyl, 3.8 m
Radar Cross Section
1.963 m², Large (>1 m²)

Expand to show TLE details & history
Last TLE update: 16 hours ago

TLE from 16 hours ago
0 SPACEMOBILE-SSR04 DEB
1 62372U 24163J   25346.60343511  .00023014  00000-0  71809-3 0  9997
2 62372  52.9876  69.8613 0005231 313.5468  46.5097 15.33127355 66269
Epoch: 2025-12-12T14:28Z
TLE epoch observation values (Epoch: 2025-12-12T14:28:56.793Z)
Latitude
-0.00001°
Longitude
131.08197°
Altitude
464.908 km
Speed
7.637 km/s
True Right ascension
04h 39m 26s
True Declination
0° 00' 00"
Sunlit
Object was in full shadow at epoch
Visualization orbit readout
Latitude
Unknown
Longitude
Unknown
Altitude
Unknown
Speed
Unknown
Apparent Right ascension
Unknown
Apparent Declination
Unknown
Sunlit
N/A
Visualization observer readout
Local Sidereal Time
05:23:36
Azimuth
Unknown
Elevation
Unknown
Doppler factor
Unknown
Orbital elements
Apogee altitude
470.354 km
Perigee altitude
463.192 km
Semi-major axis
6,844.91 km
Eccentricity
0.00052
Inclination
52.9876°
RAAN
69.8613°
Arg. of periapsis
313.5468°
True anomaly
46.55321°
Mean anomaly
46.5097°
Eccentric anomaly
46.53145°
Mean motion
3.83258 °/min
Orbital period
93.93 mins
BSTAR
0.00071809
Loading maneuver chart data...
Computing Atmospheric mass density...
Loading historical data...
Loading historical data...
Loading historical data...
Loading historical data...
Loading historical data...
Loading historical data...
Loading historical data...

Documentation

Showing up to 5 results
|